Year,Month,Day,Hour,Minute,Value (Times are PST for temperature in C)
2012,05,29,00,00,10.40
2012,05,29,00,05,10.30
2012,05,29,00,06,10.30
2012,05,29,00,07,10.30
2012,05,29,00,08,10.40
2012,05,29,00,09,10.40
2012,05,29,00,10,10.40
2012,05,29,00,11,10.40
2012,05,29,00,12,10.40
2012,05,29,00,13,10.40
2012,05,29,00,14,10.50
2012,05,29,00,15,10.50
2012,05,29,00,16,10.50
2012,05,29,00,17,10.50
2012,05,29,00,18,10.50
2012,05,29,00,19,10.50
2012,05,29,00,20,10.50
2012,05,29,00,21,10.50
2012,05,29,00,22,10.50
2012,05,29,00,23,10.50
2012,05,29,00,24,10.40
2012,05,29,00,25,10.40
2012,05,29,00,26,10.40
2012,05,29,00,27,10.30
2012,05,29,00,28,10.30
2012,05,29,00,29,10.30
2012,05,29,00,30,10.20
2012,05,29,00,31,10.20
2012,05,29,00,32,10.20
2012,05,29,00,33,10.20
2012,05,29,00,34,10.20
2012,05,29,00,35,10.20
2012,05,29,00,36,10.20
2012,05,29,00,37,10.20
2012,05,29,00,38,10.10
2012,05,29,00,39,10.10
2012,05,29,00,40,10.10
2012,05,29,00,41,10.10
2012,05,29,00,42,10.10
2012,05,29,00,43,10.10
2012,05,29,00,44,10.10
2012,05,29,00,45,10.10
2012,05,29,00,46,10.10
2012,05,29,00,47,10.10
2012,05,29,00,48,10.10
2012,05,29,00,49,10.10
2012,05,29,00,50,10.00
2012,05,29,00,51,10.00
2012,05,29,00,52,10.00
2012,05,29,00,53,10.00
2012,05,29,00,54,10.00
2012,05,29,00,55,10.00
2012,05,29,00,56,10.00
2012,05,29,00,57,10.00
2012,05,29,00,58,10.00
2012,05,29,00,59,9.90
2012,05,29,01,00,9.90
2012,05,29,01,01,9.90
2012,05,29,01,02,9.90
2012,05,29,01,03,9.90
2012,05,29,01,04,9.90
2012,05,29,01,05,9.90
2012,05,29,01,06,9.90
2012,05,29,01,07,9.90
2012,05,29,01,08,9.90
2012,05,29,01,09,9.80
2012,05,29,01,10,9.80
2012,05,29,01,11,9.80
2012,05,29,01,12,9.80
2012,05,29,01,13,9.80
2012,05,29,01,14,9.80
2012,05,29,01,15,9.80
2012,05,29,01,16,9.80
2012,05,29,01,17,9.80
2012,05,29,01,18,9.80
2012,05,29,01,19,9.80
2012,05,29,01,20,9.80
2012,05,29,01,21,9.80
2012,05,29,01,22,9.70
2012,05,29,01,23,9.70
2012,05,29,01,24,9.70
2012,05,29,01,25,9.70
2012,05,29,01,26,9.70
2012,05,29,01,27,9.70
2012,05,29,01,28,9.60
2012,05,29,01,29,9.60
2012,05,29,01,30,9.60
2012,05,29,01,31,9.60
2012,05,29,01,32,9.50
2012,05,29,01,33,9.50
2012,05,29,01,34,9.50
2012,05,29,01,35,9.40
2012,05,29,01,36,9.40
2012,05,29,01,37,9.40
2012,05,29,01,38,9.40
2012,05,29,01,39,9.30
2012,05,29,01,40,9.30
2012,05,29,01,41,9.30
2012,05,29,01,42,9.30
2012,05,29,01,43,9.30
2012,05,29,01,44,9.20
2012,05,29,01,45,9.20
2012,05,29,01,46,9.20
2012,05,29,01,47,9.10
2012,05,29,01,48,9.10
2012,05,29,01,49,9.10
2012,05,29,01,50,9.10
2012,05,29,01,51,9.10
2012,05,29,01,52,9.00
2012,05,29,01,53,9.00
2012,05,29,01,54,8.90
2012,05,29,01,55,8.90
2012,05,29,01,56,8.90
2012,05,29,01,57,8.90
2012,05,29,01,58,8.90
2012,05,29,01,59,8.80
2012,05,29,02,00,8.80
2012,05,29,02,01,8.80
2012,05,29,02,02,8.80
2012,05,29,02,03,8.70
2012,05,29,02,04,8.70
2012,05,29,02,05,8.70
2012,05,29,02,06,8.70
2012,05,29,02,07,8.60
2012,05,29,02,08,8.60
2012,05,29,02,09,8.60
2012,05,29,02,10,8.60
2012,05,29,02,11,8.60
2012,05,29,02,12,8.60
2012,05,29,02,13,8.60
2012,05,29,02,14,8.50
2012,05,29,02,15,8.50
2012,05,29,02,16,8.50
2012,05,29,02,17,8.50
2012,05,29,02,18,8.40
2012,05,29,02,19,8.40
2012,05,29,02,20,8.40
2012,05,29,02,21,8.30
2012,05,29,02,22,8.30
2012,05,29,02,23,8.30
2012,05,29,02,24,8.40
2012,05,29,02,25,8.40
2012,05,29,02,26,8.40
2012,05,29,02,27,8.40
2012,05,29,02,28,8.40
2012,05,29,02,29,8.40
2012,05,29,02,30,8.40
2012,05,29,02,31,8.30
2012,05,29,02,32,8.30
2012,05,29,02,33,8.30
2012,05,29,02,34,8.30
2012,05,29,02,35,8.30
2012,05,29,02,36,8.20
2012,05,29,02,37,8.20
2012,05,29,02,38,8.20
2012,05,29,02,39,8.20
2012,05,29,02,40,8.20
2012,05,29,02,41,8.20
2012,05,29,02,42,8.20
2012,05,29,02,43,8.20
2012,05,29,02,44,8.20
2012,05,29,02,45,8.30
2012,05,29,02,46,8.30
2012,05,29,02,47,8.30
2012,05,29,02,48,8.30
2012,05,29,02,49,8.30
2012,05,29,02,50,8.30
2012,05,29,02,51,8.30
2012,05,29,02,52,8.20
2012,05,29,02,53,8.20
2012,05,29,02,54,8.20
2012,05,29,02,55,8.20
2012,05,29,02,56,8.20
2012,05,29,02,57,8.20
2012,05,29,02,58,8.20
2012,05,29,02,59,8.20
2012,05,29,03,00,8.20
2012,05,29,03,01,8.20
2012,05,29,03,02,8.30
2012,05,29,03,03,8.30
2012,05,29,03,04,8.30
2012,05,29,03,05,8.30
2012,05,29,03,06,8.30
2012,05,29,03,07,8.30
2012,05,29,03,08,8.30
2012,05,29,03,09,8.30
2012,05,29,03,10,8.30
2012,05,29,03,11,8.30
2012,05,29,03,12,8.30
2012,05,29,03,13,8.30
2012,05,29,03,14,8.40
2012,05,29,03,15,8.40
2012,05,29,03,16,8.40
2012,05,29,03,17,8.40
2012,05,29,03,18,8.40
2012,05,29,03,19,8.40
2012,05,29,03,20,8.50
2012,05,29,03,21,8.50
2012,05,29,03,22,8.50
2012,05,29,03,23,8.50
2012,05,29,03,24,8.40
2012,05,29,03,25,8.40
2012,05,29,03,26,8.40
2012,05,29,03,27,8.40
2012,05,29,03,28,8.30
2012,05,29,03,29,8.30
2012,05,29,03,30,8.30
2012,05,29,03,31,8.20
2012,05,29,03,32,8.20
2012,05,29,03,33,8.20
2012,05,29,03,34,8.20
2012,05,29,03,35,8.10
2012,05,29,03,36,8.10
2012,05,29,03,37,8.00
2012,05,29,03,38,8.00
2012,05,29,03,39,8.00
2012,05,29,03,40,8.00
2012,05,29,03,41,8.00
2012,05,29,03,42,8.00
2012,05,29,03,43,7.90
2012,05,29,03,44,7.90
2012,05,29,03,45,7.90
2012,05,29,03,46,7.90
2012,05,29,03,47,7.90
2012,05,29,03,48,7.80
2012,05,29,03,49,7.80
2012,05,29,03,50,7.80
2012,05,29,03,51,7.80
2012,05,29,03,52,7.70
2012,05,29,03,53,7.70
2012,05,29,03,54,7.70
2012,05,29,03,55,7.70
2012,05,29,03,56,7.60
2012,05,29,03,57,7.60
2012,05,29,03,58,7.50
2012,05,29,03,59,7.50
2012,05,29,04,00,7.50
2012,05,29,04,01,7.40
2012,05,29,04,02,7.40
2012,05,29,04,03,7.40
2012,05,29,04,04,7.30
2012,05,29,04,05,7.30
2012,05,29,04,06,7.30
2012,05,29,04,07,7.30
2012,05,29,04,08,7.30
2012,05,29,04,09,7.30
2012,05,29,04,10,7.30
2012,05,29,04,11,7.30
2012,05,29,04,12,7.20
2012,05,29,04,13,7.20
2012,05,29,04,14,7.20
2012,05,29,04,15,7.20
2012,05,29,04,16,7.20
2012,05,29,04,17,7.20
2012,05,29,04,18,7.20
2012,05,29,04,19,7.20
2012,05,29,04,20,7.20
2012,05,29,04,21,7.20
2012,05,29,04,22,7.20
2012,05,29,04,23,7.20
2012,05,29,04,24,7.20
2012,05,29,04,25,7.10
2012,05,29,04,26,7.10
2012,05,29,04,27,7.10
2012,05,29,04,28,7.10
2012,05,29,04,29,7.10
2012,05,29,04,30,7.00
2012,05,29,04,31,7.00
2012,05,29,04,32,7.00
2012,05,29,04,33,7.00
2012,05,29,04,34,6.90
2012,05,29,04,35,6.90
2012,05,29,04,36,6.90
2012,05,29,04,37,6.90
2012,05,29,04,38,6.90
2012,05,29,04,39,6.90
2012,05,29,04,40,6.90
2012,05,29,04,41,6.80
2012,05,29,04,42,6.80
2012,05,29,04,43,6.80
2012,05,29,04,44,6.80
2012,05,29,04,45,6.80
2012,05,29,04,46,6.80
2012,05,29,04,47,6.70
2012,05,29,04,48,6.70
2012,05,29,04,49,6.70
2012,05,29,04,50,6.70
2012,05,29,04,51,6.70
2012,05,29,04,52,6.70
2012,05,29,04,53,6.70
2012,05,29,04,54,6.70
2012,05,29,04,55,6.70
2012,05,29,04,56,6.70
2012,05,29,04,57,6.60
2012,05,29,04,58,6.60
2012,05,29,04,59,6.60
2012,05,29,05,00,6.60
2012,05,29,05,01,6.60
2012,05,29,05,02,6.60
2012,05,29,05,03,6.60
2012,05,29,05,04,6.60
2012,05,29,05,05,6.60
2012,05,29,05,06,6.60
2012,05,29,05,07,6.60
2012,05,29,05,08,6.60
2012,05,29,05,09,6.70
2012,05,29,05,10,6.70
2012,05,29,05,11,6.60
2012,05,29,05,12,6.60
2012,05,29,05,13,6.60
2012,05,29,05,14,6.60
2012,05,29,05,15,6.60
2012,05,29,05,16,6.50
2012,05,29,05,17,6.50
2012,05,29,05,18,6.40
2012,05,29,05,19,6.40
2012,05,29,05,20,6.40
2012,05,29,05,21,6.30
2012,05,29,05,22,6.30
2012,05,29,05,23,6.30
2012,05,29,05,24,6.30
2012,05,29,05,25,6.30
2012,05,29,05,26,6.20
2012,05,29,05,27,6.20
2012,05,29,05,28,6.20
2012,05,29,05,29,6.20
2012,05,29,05,30,6.20
2012,05,29,05,31,6.10
2012,05,29,05,32,6.10
2012,05,29,05,33,6.10
2012,05,29,05,34,6.10
2012,05,29,05,35,6.10
2012,05,29,05,36,6.00
2012,05,29,05,37,6.00
2012,05,29,05,38,6.00
2012,05,29,05,39,5.90
2012,05,29,05,40,5.90
2012,05,29,05,41,5.90
2012,05,29,05,42,5.90
2012,05,29,05,43,5.90
2012,05,29,05,44,5.90
2012,05,29,05,45,5.90
2012,05,29,05,46,5.90
2012,05,29,05,47,5.90
2012,05,29,05,48,6.00
2012,05,29,05,49,6.00
2012,05,29,05,50,6.00
2012,05,29,05,51,6.00
2012,05,29,05,52,6.00
2012,05,29,05,53,6.00
2012,05,29,05,54,6.00
2012,05,29,05,55,6.00
2012,05,29,05,56,6.00
2012,05,29,05,57,6.00
2012,05,29,05,58,6.10
2012,05,29,05,59,6.10
2012,05,29,06,00,6.10
2012,05,29,06,01,6.10
2012,05,29,06,02,6.20
2012,05,29,06,03,6.20
2012,05,29,06,04,6.20
2012,05,29,06,05,6.20
2012,05,29,06,06,6.30
2012,05,29,06,07,6.30
2012,05,29,06,08,6.30
2012,05,29,06,09,6.30
2012,05,29,06,10,6.30
2012,05,29,06,11,6.40
2012,05,29,06,12,6.40
2012,05,29,06,13,6.40
2012,05,29,06,14,6.40
2012,05,29,06,15,6.50
2012,05,29,06,16,6.50
2012,05,29,06,17,6.50
2012,05,29,06,18,6.60
2012,05,29,06,19,6.60
2012,05,29,06,20,6.60
2012,05,29,06,21,6.60
2012,05,29,06,22,6.60
2012,05,29,06,23,6.60
2012,05,29,06,24,6.70
2012,05,29,06,25,6.70
2012,05,29,06,26,6.70
2012,05,29,06,27,6.70
2012,05,29,06,28,6.70
2012,05,29,06,29,6.70
2012,05,29,06,30,6.70
2012,05,29,06,31,6.70
2012,05,29,06,32,6.70
2012,05,29,06,33,6.70
2012,05,29,06,34,6.70
2012,05,29,06,35,6.70
2012,05,29,06,36,6.70
2012,05,29,06,37,6.70
2012,05,29,06,38,6.70
2012,05,29,06,39,6.70
2012,05,29,06,40,6.60
2012,05,29,06,41,6.60
2012,05,29,06,42,6.70
2012,05,29,06,43,6.70
2012,05,29,06,44,6.70
2012,05,29,06,45,6.70
2012,05,29,06,46,6.70
2012,05,29,06,47,6.70
2012,05,29,06,48,6.70
2012,05,29,06,49,6.70
2012,05,29,06,50,6.70
2012,05,29,06,51,6.70
2012,05,29,06,52,6.70
2012,05,29,06,53,6.80
2012,05,29,06,54,6.80
2012,05,29,06,55,6.80
2012,05,29,06,56,6.90
2012,05,29,06,57,6.90
2012,05,29,06,58,7.00
2012,05,29,06,59,7.10
2012,05,29,07,00,7.10
2012,05,29,07,01,7.20
2012,05,29,07,02,7.30
2012,05,29,07,03,7.30
2012,05,29,07,04,7.40
2012,05,29,07,05,7.50
2012,05,29,07,06,7.60
2012,05,29,07,07,7.70
2012,05,29,07,08,7.80
2012,05,29,07,09,7.80
2012,05,29,07,10,7.90
2012,05,29,07,11,8.00
2012,05,29,07,12,8.00
2012,05,29,07,13,8.10
2012,05,29,07,14,8.20
2012,05,29,07,15,8.30
2012,05,29,07,16,8.40
2012,05,29,07,17,8.50
2012,05,29,07,18,8.70
2012,05,29,07,19,8.80
2012,05,29,07,20,9.00
2012,05,29,07,21,9.10
2012,05,29,07,22,9.20
2012,05,29,07,23,9.40
2012,05,29,07,24,9.60
2012,05,29,07,25,9.70
2012,05,29,07,26,9.80
2012,05,29,07,27,9.90
2012,05,29,07,28,10.00
2012,05,29,07,29,10.20
2012,05,29,07,30,10.30
2012,05,29,07,31,10.40
2012,05,29,07,32,10.50
2012,05,29,07,33,10.60
2012,05,29,07,34,10.60
2012,05,29,07,35,10.60
2012,05,29,07,36,10.60
2012,05,29,07,37,10.60
2012,05,29,07,38,10.60
2012,05,29,07,39,10.60
2012,05,29,07,40,10.60
2012,05,29,07,41,10.60
2012,05,29,07,42,10.70
2012,05,29,07,43,10.80
2012,05,29,07,44,10.80
2012,05,29,07,45,10.80
2012,05,29,07,46,10.80
2012,05,29,07,47,10.80
2012,05,29,07,48,10.80
2012,05,29,07,49,10.90
2012,05,29,07,50,10.90
2012,05,29,07,51,10.90
2012,05,29,07,52,10.90
2012,05,29,07,53,11.00
2012,05,29,07,54,11.10
2012,05,29,07,55,11.10
2012,05,29,07,56,11.20
2012,05,29,07,57,11.20
2012,05,29,07,58,11.20
2012,05,29,07,59,11.20
2012,05,29,08,00,11.20
2012,05,29,08,01,11.20
2012,05,29,08,02,11.20
2012,05,29,08,03,11.10
2012,05,29,08,04,11.10
2012,05,29,08,05,11.20
2012,05,29,08,06,11.20
2012,05,29,08,07,11.20
2012,05,29,08,08,11.20
2012,05,29,08,09,11.20
2012,05,29,08,10,11.20
2012,05,29,08,11,11.10
2012,05,29,08,12,11.10
2012,05,29,08,13,11.00
2012,05,29,08,14,11.00
2012,05,29,08,15,10.90
2012,05,29,08,16,10.90
2012,05,29,08,17,10.90
2012,05,29,08,18,11.00
2012,05,29,08,19,11.00
2012,05,29,08,20,11.10
2012,05,29,08,21,11.20
2012,05,29,08,22,11.20
2012,05,29,08,23,11.30
2012,05,29,08,24,11.40
2012,05,29,08,25,11.40
2012,05,29,08,26,11.40
2012,05,29,08,27,11.40
2012,05,29,08,28,11.40
2012,05,29,08,29,11.30
2012,05,29,08,30,11.30
2012,05,29,08,31,11.40
2012,05,29,08,32,11.40
2012,05,29,08,33,11.40
2012,05,29,08,34,11.40
2012,05,29,08,35,11.40
2012,05,29,08,36,11.30
2012,05,29,08,37,11.30
2012,05,29,08,38,11.30
2012,05,29,08,39,11.30
2012,05,29,08,40,11.30
2012,05,29,08,41,11.30
2012,05,29,08,42,11.30
2012,05,29,08,43,11.30
2012,05,29,08,44,11.40
2012,05,29,08,45,11.40
2012,05,29,08,46,11.40
2012,05,29,08,47,11.50
2012,05,29,08,48,11.60
2012,05,29,08,49,11.70
2012,05,29,08,50,11.70
2012,05,29,08,51,11.70
2012,05,29,08,52,11.70
2012,05,29,08,53,11.70
2012,05,29,08,54,11.60
2012,05,29,08,55,11.60
2012,05,29,08,56,11.60
2012,05,29,08,57,11.60
2012,05,29,08,58,11.50
2012,05,29,08,59,11.50
2012,05,29,09,00,11.50
2012,05,29,09,01,11.50
2012,05,29,09,02,11.40
2012,05,29,09,03,11.50
2012,05,29,09,04,11.50
2012,05,29,09,05,11.50
2012,05,29,09,06,11.60
2012,05,29,09,07,11.60
2012,05,29,09,08,11.60
2012,05,29,09,09,11.70
2012,05,29,09,10,11.70
2012,05,29,09,11,11.70
2012,05,29,09,12,11.80
2012,05,29,09,13,11.80
2012,05,29,09,14,11.90
2012,05,29,09,15,12.00
2012,05,29,09,16,12.10
2012,05,29,09,17,12.10
2012,05,29,09,18,12.10
2012,05,29,09,19,12.10
2012,05,29,09,20,12.10
2012,05,29,09,21,12.10
2012,05,29,09,22,12.10
2012,05,29,09,23,12.10
2012,05,29,09,24,12.10
2012,05,29,09,25,12.10
2012,05,29,09,26,12.10
2012,05,29,09,27,12.20
2012,05,29,09,28,12.20
2012,05,29,09,29,12.30
2012,05,29,09,30,12.30
2012,05,29,09,31,12.30
2012,05,29,09,32,12.30
2012,05,29,09,33,12.20
2012,05,29,09,34,12.20
2012,05,29,09,35,12.20
2012,05,29,09,36,12.10
2012,05,29,09,37,12.10
2012,05,29,09,38,12.00
2012,05,29,09,39,11.90
2012,05,29,09,40,11.80
2012,05,29,09,41,11.70
2012,05,29,09,42,11.70
2012,05,29,09,43,11.70
2012,05,29,09,44,11.80
2012,05,29,09,45,11.80
2012,05,29,09,46,11.80
2012,05,29,09,47,11.70
2012,05,29,09,48,11.70
2012,05,29,09,49,11.70
2012,05,29,09,50,11.80
2012,05,29,09,51,11.80
2012,05,29,09,52,11.90
2012,05,29,09,53,12.00
2012,05,29,09,54,12.10
2012,05,29,09,55,12.10
2012,05,29,09,56,12.10
2012,05,29,09,57,12.10
2012,05,29,09,58,12.00
2012,05,29,09,59,11.90
2012,05,29,10,00,11.90
2012,05,29,10,01,11.80
2012,05,29,10,02,11.70
2012,05,29,10,03,11.60
2012,05,29,10,04,11.60
2012,05,29,10,05,11.60
2012,05,29,10,06,11.60
2012,05,29,10,07,11.60
2012,05,29,10,08,11.60
2012,05,29,10,09,11.70
2012,05,29,10,10,11.70
2012,05,29,10,11,11.70
2012,05,29,10,12,11.70
2012,05,29,10,13,11.70
2012,05,29,10,14,11.60
2012,05,29,10,15,11.60
2012,05,29,10,16,11.70
2012,05,29,10,17,11.70
2012,05,29,10,18,11.70
2012,05,29,10,19,11.70
2012,05,29,10,20,11.70
2012,05,29,10,21,11.70
2012,05,29,10,22,11.70
2012,05,29,10,23,11.80
2012,05,29,10,24,11.80
2012,05,29,10,25,11.90
2012,05,29,10,26,11.90
2012,05,29,10,27,11.90
2012,05,29,10,28,11.90
2012,05,29,10,29,11.90
2012,05,29,10,30,11.90
2012,05,29,10,31,11.80
2012,05,29,10,32,11.80
2012,05,29,10,33,11.90
2012,05,29,10,34,11.90
2012,05,29,10,35,11.90
2012,05,29,10,36,11.80
2012,05,29,10,37,11.80
2012,05,29,10,38,11.80
2012,05,29,10,39,11.80
2012,05,29,10,40,11.80
2012,05,29,10,41,11.80
2012,05,29,10,42,11.80
2012,05,29,10,43,11.80
2012,05,29,10,44,11.90
2012,05,29,10,45,11.90
2012,05,29,10,46,12.00
2012,05,29,10,47,12.10
2012,05,29,10,48,12.10
2012,05,29,10,49,12.20
2012,05,29,10,50,12.30
2012,05,29,10,51,12.30
2012,05,29,10,52,12.30
2012,05,29,10,53,12.30
2012,05,29,10,54,12.30
2012,05,29,10,55,12.40
2012,05,29,10,56,12.40
2012,05,29,10,57,12.30
2012,05,29,10,58,12.30
2012,05,29,10,59,12.20
2012,05,29,11,00,12.10
2012,05,29,11,01,12.10
2012,05,29,11,02,12.10
2012,05,29,11,03,12.00
2012,05,29,11,04,12.00
2012,05,29,11,05,12.00
2012,05,29,11,06,12.00
2012,05,29,11,07,11.90
2012,05,29,11,08,11.80
2012,05,29,11,09,11.80
2012,05,29,11,10,11.80
2012,05,29,11,11,11.70
2012,05,29,11,12,11.80
2012,05,29,11,13,11.90
2012,05,29,11,14,12.00
2012,05,29,11,15,12.10
2012,05,29,11,16,12.10
2012,05,29,11,17,12.20
2012,05,29,11,18,12.20
2012,05,29,11,19,12.30
2012,05,29,11,20,12.40
2012,05,29,11,21,12.50
2012,05,29,11,22,12.70
2012,05,29,11,23,12.80
2012,05,29,11,24,12.80
2012,05,29,11,25,12.80
2012,05,29,11,26,12.80
2012,05,29,11,27,12.70
2012,05,29,11,28,12.70
2012,05,29,11,29,12.60
2012,05,29,11,30,12.50
2012,05,29,11,31,12.60
2012,05,29,11,32,12.70
2012,05,29,11,33,12.90
2012,05,29,11,34,13.00
2012,05,29,11,35,13.00
2012,05,29,11,36,13.00
2012,05,29,11,37,12.90
2012,05,29,11,38,12.90
2012,05,29,11,39,12.80
2012,05,29,11,40,12.80
2012,05,29,11,41,12.80
2012,05,29,11,42,12.80
2012,05,29,11,43,12.90
2012,05,29,11,44,13.10
2012,05,29,11,45,13.10
2012,05,29,11,46,13.20
2012,05,29,11,47,13.10
2012,05,29,11,48,13.10
2012,05,29,11,49,13.10
2012,05,29,11,50,13.00
2012,05,29,11,51,13.10
2012,05,29,11,52,13.20
2012,05,29,11,53,13.20
2012,05,29,11,54,13.30
2012,05,29,11,55,13.30
2012,05,29,11,56,13.50
2012,05,29,11,57,13.60
2012,05,29,11,58,13.80
2012,05,29,11,59,13.90
2012,05,29,12,00,14.00
2012,05,29,12,01,14.10
2012,05,29,12,02,14.30
2012,05,29,12,03,14.40
2012,05,29,12,04,14.50
2012,05,29,12,05,14.60
2012,05,29,12,06,14.80
2012,05,29,12,07,15.00
2012,05,29,12,08,15.10
2012,05,29,12,09,15.20
2012,05,29,12,10,15.30
2012,05,29,12,11,15.30
2012,05,29,12,12,15.40
2012,05,29,12,13,15.50
2012,05,29,12,14,15.40
2012,05,29,12,15,15.10
2012,05,29,12,16,14.90
2012,05,29,12,17,14.90
2012,05,29,12,18,14.80
2012,05,29,12,19,14.60
2012,05,29,12,20,14.40
2012,05,29,12,21,14.30
2012,05,29,12,22,14.30
2012,05,29,12,23,14.20
2012,05,29,12,24,14.20
2012,05,29,12,25,14.30
2012,05,29,12,26,14.40
2012,05,29,12,27,14.50
2012,05,29,12,28,14.60
2012,05,29,12,29,14.70
2012,05,29,12,30,14.70
2012,05,29,12,31,14.80
2012,05,29,12,32,14.90
2012,05,29,12,33,14.90
2012,05,29,12,34,15.00
2012,05,29,12,35,15.00
2012,05,29,12,36,15.10
2012,05,29,12,37,15.10
2012,05,29,12,38,15.20
2012,05,29,12,39,15.20
2012,05,29,12,40,15.30
2012,05,29,12,41,15.30
2012,05,29,12,42,15.40
2012,05,29,12,43,15.40
2012,05,29,12,44,15.40
2012,05,29,12,45,15.20
2012,05,29,12,46,15.10
2012,05,29,12,47,15.00
2012,05,29,12,48,15.00
2012,05,29,12,49,14.80
2012,05,29,12,50,14.80
2012,05,29,12,51,14.70
2012,05,29,12,52,14.80
2012,05,29,12,53,14.90
2012,05,29,12,54,14.90
2012,05,29,12,55,14.90
2012,05,29,12,56,14.90
2012,05,29,12,57,14.90
2012,05,29,12,58,14.90
2012,05,29,12,59,14.90
2012,05,29,13,00,15.00
2012,05,29,13,01,15.00
2012,05,29,13,02,15.10
2012,05,29,13,03,15.20
2012,05,29,13,04,15.30
2012,05,29,13,05,15.30
2012,05,29,13,06,15.30
2012,05,29,13,07,15.40
2012,05,29,13,08,15.40
2012,05,29,13,09,15.40
2012,05,29,13,10,15.30
2012,05,29,13,11,15.20
2012,05,29,13,12,15.20
2012,05,29,13,13,15.20
2012,05,29,13,14,15.20
2012,05,29,13,15,15.20
2012,05,29,13,16,15.10
2012,05,29,13,17,15.10
2012,05,29,13,18,15.20
2012,05,29,13,19,15.20
2012,05,29,13,20,15.20
2012,05,29,13,21,15.10
2012,05,29,13,22,15.00
2012,05,29,13,23,15.00
2012,05,29,13,24,15.00
2012,05,29,13,25,15.10
2012,05,29,13,26,15.20
2012,05,29,13,27,15.20
2012,05,29,13,28,15.30
2012,05,29,13,29,15.30
2012,05,29,13,30,15.20
2012,05,29,13,31,15.20
2012,05,29,13,32,15.20
2012,05,29,13,33,15.30
2012,05,29,13,34,15.30
2012,05,29,13,35,15.30
2012,05,29,13,36,15.30
2012,05,29,13,37,15.40
2012,05,29,13,38,15.40
2012,05,29,13,39,15.40
2012,05,29,13,40,15.40
2012,05,29,13,41,15.40
2012,05,29,13,42,15.40
2012,05,29,13,43,15.40
2012,05,29,13,44,15.40
2012,05,29,13,45,15.30
2012,05,29,13,46,15.30
2012,05,29,13,47,15.30
2012,05,29,13,48,15.30
2012,05,29,13,49,15.40
2012,05,29,13,50,15.50
2012,05,29,13,51,15.60
2012,05,29,13,52,15.60
2012,05,29,13,53,15.50
2012,05,29,13,54,15.50
2012,05,29,13,55,15.50
2012,05,29,13,56,15.40
2012,05,29,13,57,15.10
2012,05,29,13,58,14.90
2012,05,29,13,59,14.80
2012,05,29,14,00,14.80
2012,05,29,14,01,14.90
2012,05,29,14,02,15.00
2012,05,29,14,03,15.10
2012,05,29,14,04,15.20
2012,05,29,14,05,15.20
2012,05,29,14,06,15.30
2012,05,29,14,07,15.40
2012,05,29,14,08,15.60
2012,05,29,14,09,15.70
2012,05,29,14,10,15.50
2012,05,29,14,11,15.10
2012,05,29,14,12,14.80
2012,05,29,14,13,14.60
2012,05,29,14,14,14.40
2012,05,29,14,15,14.20
2012,05,29,14,16,14.10
2012,05,29,14,17,14.10
2012,05,29,14,18,14.00
2012,05,29,14,19,14.00
2012,05,29,14,20,14.00
2012,05,29,14,21,13.90
2012,05,29,14,22,13.80
2012,05,29,14,23,13.70
2012,05,29,14,24,13.70
2012,05,29,14,25,13.70
2012,05,29,14,26,13.80
2012,05,29,14,27,13.70
2012,05,29,14,28,13.60
2012,05,29,14,29,13.50
2012,05,29,14,30,13.40
2012,05,29,14,31,13.30
2012,05,29,14,32,13.40
2012,05,29,14,33,13.40
2012,05,29,14,34,13.40
2012,05,29,14,35,13.50
2012,05,29,14,36,13.60
2012,05,29,14,37,13.70
2012,05,29,14,38,13.80
2012,05,29,14,39,13.80
2012,05,29,14,40,13.80
2012,05,29,14,41,13.90
2012,05,29,14,42,14.00
2012,05,29,14,43,14.10
2012,05,29,14,44,14.10
2012,05,29,14,45,14.20
2012,05,29,14,46,14.20
2012,05,29,14,47,14.20
2012,05,29,14,48,14.10
2012,05,29,14,49,14.00
2012,05,29,14,50,13.90
2012,05,29,14,51,13.70
2012,05,29,14,52,13.60
2012,05,29,14,53,13.50
2012,05,29,14,54,13.40
2012,05,29,14,55,13.40
2012,05,29,14,56,13.50
2012,05,29,14,57,13.50
2012,05,29,14,58,13.60
2012,05,29,14,59,13.70
2012,05,29,15,00,13.70
2012,05,29,15,01,13.70
2012,05,29,15,02,13.70
2012,05,29,15,03,13.70
2012,05,29,15,04,13.90
2012,05,29,15,05,14.10
2012,05,29,15,06,14.20
2012,05,29,15,07,14.30
2012,05,29,15,08,14.30
2012,05,29,15,09,14.20
2012,05,29,15,10,14.20
2012,05,29,15,11,14.10
2012,05,29,15,12,14.00
2012,05,29,15,13,13.90
2012,05,29,15,14,13.80
2012,05,29,15,15,13.80
2012,05,29,15,16,13.90
2012,05,29,15,17,14.00
2012,05,29,15,18,14.20
2012,05,29,15,19,14.50
2012,05,29,15,20,14.80
2012,05,29,15,21,15.00
2012,05,29,15,22,15.20
2012,05,29,15,23,15.30
2012,05,29,15,24,15.50
2012,05,29,15,25,15.60
2012,05,29,15,26,15.80
2012,05,29,15,27,15.80
2012,05,29,15,28,15.80
2012,05,29,15,29,15.70
2012,05,29,15,30,15.60
2012,05,29,15,31,15.30
2012,05,29,15,32,15.00
2012,05,29,15,33,14.90
2012,05,29,15,34,14.70
2012,05,29,15,35,14.70
2012,05,29,15,36,14.70
2012,05,29,15,37,14.80
2012,05,29,15,38,14.90
2012,05,29,15,39,15.10
2012,05,29,15,40,15.20
2012,05,29,15,41,15.30
2012,05,29,15,42,15.40
2012,05,29,15,43,15.50
2012,05,29,15,44,15.70
2012,05,29,15,45,15.80
2012,05,29,15,46,15.80
2012,05,29,15,47,15.90
2012,05,29,15,48,15.90
2012,05,29,15,49,15.90
2012,05,29,15,50,15.90
2012,05,29,15,51,15.90
2012,05,29,15,52,15.80
2012,05,29,15,53,15.80
2012,05,29,15,54,15.90
2012,05,29,15,55,15.90
2012,05,29,15,56,15.90
2012,05,29,15,57,15.90
2012,05,29,15,58,15.90
2012,05,29,15,59,15.80
2012,05,29,16,00,15.80
2012,05,29,16,01,16.00
2012,05,29,16,02,16.00
2012,05,29,16,03,16.10
2012,05,29,16,04,16.20
2012,05,29,16,05,16.20
2012,05,29,16,06,16.20
2012,05,29,16,07,16.10
2012,05,29,16,08,16.00
2012,05,29,16,09,15.90
2012,05,29,16,10,15.80
2012,05,29,16,11,15.70
2012,05,29,16,12,15.60
2012,05,29,16,13,15.60
2012,05,29,16,14,15.60
2012,05,29,16,15,15.60
2012,05,29,16,16,15.70
2012,05,29,16,17,15.80
2012,05,29,16,18,15.80
2012,05,29,16,19,15.70
2012,05,29,16,20,15.70
2012,05,29,16,21,15.70
2012,05,29,16,22,15.70
2012,05,29,16,23,15.70
2012,05,29,16,24,15.70
2012,05,29,16,25,15.60
2012,05,29,16,26,15.50
2012,05,29,16,27,15.40
2012,05,29,16,28,15.40
2012,05,29,16,29,15.30
2012,05,29,16,30,15.20
2012,05,29,16,31,15.20
2012,05,29,16,32,15.10
2012,05,29,16,33,15.20
2012,05,29,16,34,15.10
2012,05,29,16,35,15.20
2012,05,29,16,36,15.20
2012,05,29,16,37,15.30
2012,05,29,16,38,15.30
2012,05,29,16,39,15.20
2012,05,29,16,40,15.20
2012,05,29,16,41,15.10
2012,05,29,16,42,15.10
2012,05,29,16,43,15.00
2012,05,29,16,44,14.90
2012,05,29,16,45,14.90
2012,05,29,16,46,14.90
2012,05,29,16,47,15.00
2012,05,29,16,48,15.00
2012,05,29,16,49,14.90
2012,05,29,16,50,14.90
2012,05,29,16,51,14.90
2012,05,29,16,52,14.90
2012,05,29,16,53,15.00
2012,05,29,16,54,15.10
2012,05,29,16,55,15.20
2012,05,29,16,56,15.20
2012,05,29,16,57,15.10
2012,05,29,16,58,15.20
2012,05,29,16,59,15.20
2012,05,29,17,00,15.20
2012,05,29,17,01,15.10
2012,05,29,17,02,15.00
2012,05,29,17,03,15.00
2012,05,29,17,04,14.90
2012,05,29,17,05,14.90
2012,05,29,17,06,14.90
2012,05,29,17,07,14.90
2012,05,29,17,08,14.90
2012,05,29,17,09,14.80
2012,05,29,17,10,14.80
2012,05,29,17,11,14.70
2012,05,29,17,12,14.70
2012,05,29,17,13,14.60
2012,05,29,17,14,14.60
2012,05,29,17,15,14.60
2012,05,29,17,16,14.60
2012,05,29,17,17,14.60
2012,05,29,17,18,14.70
2012,05,29,17,19,14.70
2012,05,29,17,20,14.70
2012,05,29,17,21,14.70
2012,05,29,17,22,14.70
2012,05,29,17,23,14.70
2012,05,29,17,24,14.70
2012,05,29,17,25,14.70
2012,05,29,17,26,14.70
2012,05,29,17,27,14.70
2012,05,29,17,28,14.70
2012,05,29,17,29,14.80
2012,05,29,17,30,14.80
2012,05,29,17,31,14.90
2012,05,29,17,32,14.90
2012,05,29,17,33,14.90
2012,05,29,17,34,14.90
2012,05,29,17,35,14.90
2012,05,29,17,36,14.90
2012,05,29,17,37,14.90
2012,05,29,17,38,14.90
2012,05,29,17,39,14.90
2012,05,29,17,40,14.80